Home   Weather   Gorzów Wielkopolski   Past weeks

Flag for Poland Past Weather in Gorzów Wielkopolski, Poland — Yesterday and Last 2 Weeks

Now
45 °F

Overcast.


Feels Like: 44 °F
Forecast: 32 / 43 °F
Wind: 3 mph from West

Location: Gorzow Wlkp

Current Time: Feb 23, 2017 at 1:10:21 pm

Latest Report: Feb 23, 2017 at 12:00 pm


Visibility: 19 mi

Pressure: 29.44 "Hg

Humidity: 76%

Dew Point: 38 °F

Location of Gorzów WielkopolskiLocation

Past Weather in Gorzów Wielkopolski — Graph

°F

Gorzów Wielkopolski Temperature Yesterday

Maximum temperature yesterday: 49 °F (at 2:00 pm)
Minimum temperature yesterday: 33 °F (at 2:00 am)
Average temperature yesterday: 42 °F

High & Low Weather Summary for the Past Weeks

 TemperatureHumidityPressure
High52 °F (Feb 15, 3:00 pm)98% (Feb 17, 8:00 am)30.72 "Hg (Feb 17, 8:00 am)
Low15 °F (Feb 14, 7:00 am)21% (Feb 15, 3:00 pm)29.38 "Hg (Feb 22, 7:00 pm)
Average33 °F78%30.25 "Hg
* Reported Feb 8 11:00 am — Feb 23 11:00 am, Gorzów Wielkopolski, Weather by CustomWeather, © 2017

Note: Actual official high and low records may vary slightly from our data, if they occured in-between our weather recording intervals... More about our weather records

Advertising

Gorzów Wielkopolski Weather History for the Previous 24 Hours

Scroll right to see more
 ConditionsComfort  
Time TempWeatherWind HumidityBarometerVisibility
11:00 am
Thu, Feb 23
45 °FOvercast.5 mph75%29.47 "Hg16 mi
10:00 am43 °FPartly sunny.3 mph80%29.47 "Hg16 mi
9:00 am43 °FPartly sunny.5 mph76%29.47 "Hg16 mi
8:00 am41 °FPartly sunny.3 mph81%29.47 "Hg16 mi
7:00 am40 °FPartly sunny.3 mph87%29.44 "Hg16 mi
6:00 am40 °FPassing clouds.5 mph84%29.44 "Hg19 mi
5:00 am39 °FPassing clouds.5 mph88%29.44 "Hg19 mi
4:00 am39 °FOvercast.5 mph88%29.44 "Hg19 mi
3:00 am39 °FOvercast.5 mph87%29.44 "Hg25 mi
2:00 am41 °FOvercast.5 mph76%29.44 "Hg25 mi
1:00 am39 °FOvercast.5 mph87%29.44 "Hg25 mi
12:00 am39 °FPassing clouds.5 mph88%29.44 "Hg28 mi
11:00 pm
Wed, Feb 22
39 °FPassing clouds.5 mph82%29.44 "Hg28 mi
10:00 pm41 °FClear.3 mph75%29.44 "Hg31 mi
9:00 pm44 °FPassing clouds.5 mph64%29.41 "Hg31 mi
8:00 pm46 °FLight rain. Overcast.7 mph66%29.41 "Hg16 mi
7:00 pm46 °FOvercast.5 mph72%29.38 "Hg25 mi
6:00 pm47 °FOvercast.6 mph70%29.41 "Hg31 mi
5:00 pm49 °FOvercast.7 mph76%29.41 "Hg25 mi
4:00 pm49 °FOvercast.7 mph82%29.41 "Hg25 mi
3:00 pm48 °FOvercast.6 mph85%29.41 "Hg25 mi
2:00 pm49 °FRain. Low clouds.7 mph90%29.41 "Hg3 mi
1:00 pm48 °FLight rain. Low clouds.6 mph92%29.41 "Hg12 mi
Weather by CustomWeather, © 2017

See weather overviewHow to use our weather pages